Weather History for KBGM - February, 2013

Change the Weather History Date:

Tuesday, February 26, 2013

  Actual Average Record
Temperature  
Mean Temperature 29 °F 27 °F  
Max Temperature 37 °F 35 °F 62 °F (1976)
Min Temperature 21 °F 19 °F -6 °F (1990)
Degree Days  
Heating Degree Days 36 38  
Month to date heating degree days 1077 1052  
Since 1 July heating degree days 4820 5124  
Cooling Degree Days 0 0  
Month to date cooling degree days 0 0  
Year to date cooling degree days 0 0  
Moisture  
Dew Point 24 °F    
Average Humidity 73    
Maximum Humidity 92    
Minimum Humidity 54    
Precipitation  
Precipitation 0.27 in 0.09 in 0.55 in (1957)
Month to date precipitation 1.51 2.13  
Year to date precipitation 3.76 4.58  
Snow  
Snow 0.80 in 0.60 in 5.80 in (1972)
Month to date snowfall 17.3 15.9  
Since 1 July snowfall 51.5 62.7  
Snow Depth 4.00 in    
Sea Level Pressure  
Sea Level Pressure 30.06 in    
Wind  
Wind Speed 12 mph (ESE)    
Max Wind Speed 23 mph    
Max Gust Speed 30 mph    
Visibility 8 miles    
Events Snow    
T = Trace of Precipitation, MM = Missing Value Source: NWS Daily Summary

Daily Weather History Graph

Daily Weather History Graph

Search for Another Location

Airport or City:

Trip Planner

Search our weather history database for the weather conditions in past years. The results will help you decide how hot, cold, wet, or windy it might be!

Date:

Astronomy

Feb. 26, 2013 Rise Set
Actual Time 6:43 AM EST 5:50 PM EST
Civil Twilight 6:15 AM EST 6:18 PM EST
Nautical Twilight 5:42 AM EST 6:51 PM EST
Astronomical Twilight 5:10 AM EST 7:23 PM EST
Moon 7:07 PM EST (2/26) 6:43 AM EST (2/26)
Length of Visible Light 12h 03m
Length of Day
11h 07m
Full, 99% of the Moon is Illuminated
Feb 26
Full
Mar 4
Last Quarter
Mar 11
New
Mar 19
First Quarter
Mar 27
Full

Hourly Weather History & Observations

Time (EST) Temp. Windchill Dew Point Humidity Pressure Visibility Wind Dir Wind Speed Gust Speed Precip Events Conditions
12:53 AM 27.0 °F 23.0 °F 21.0 °F 78% 30.23 in 10.0 mi East 3.5 mph - N/A   Clear
1:53 AM 25.0 °F 18.1 °F 19.9 °F 81% 30.24 in 10.0 mi East 5.8 mph - N/A   Clear
2:53 AM 25.0 °F 20.7 °F 19.9 °F 81% 30.23 in 10.0 mi East 3.5 mph - N/A   Clear
3:53 AM 24.1 °F 17.0 °F 19.9 °F 84% 30.22 in 10.0 mi ESE 5.8 mph - N/A   Clear
4:53 AM 23.0 °F 15.8 °F 19.0 °F 85% 30.22 in 10.0 mi East 5.8 mph - N/A   Clear
5:53 AM 21.9 °F 14.5 °F 19.0 °F 89% 30.22 in 9.0 mi ENE 5.8 mph - N/A   Clear
6:53 AM 21.0 °F 12.4 °F 18.0 °F 88% 30.22 in 7.0 mi ENE 6.9 mph - N/A   Clear
7:53 AM 23.0 °F 17.0 °F 19.0 °F 85% 30.24 in 10.0 mi SE 4.6 mph - N/A   Clear
8:53 AM 26.1 °F 18.4 °F 21.0 °F 81% 30.24 in 10.0 mi SE 6.9 mph - N/A   Clear
9:53 AM 30.9 °F 20.7 °F 23.0 °F 72% 30.24 in 10.0 mi SE 13.8 mph 18.4 mph N/A   Clear
10:53 AM 34.0 °F 25.5 °F 23.0 °F 64% 30.20 in 10.0 mi SE 11.5 mph - N/A   Clear
11:53 AM 35.1 °F 25.5 °F 23.0 °F 61% 30.19 in 10.0 mi SE 15.0 mph 23.0 mph N/A   Clear
12:53 PM 37.0 °F 27.7 °F 23.0 °F 57% 30.14 in 10.0 mi SE 16.1 mph 24.2 mph N/A   Clear
1:53 PM 37.0 °F 28.5 °F 24.1 °F 59% 30.12 in 10.0 mi SSE 13.8 mph 25.3 mph N/A   Scattered Clouds
2:53 PM 37.0 °F 28.1 °F 23.0 °F 57% 30.10 in 10.0 mi SSE 15.0 mph 23.0 mph N/A   Partly Cloudy
3:53 PM 35.1 °F 23.8 °F 24.1 °F 64% 30.09 in 10.0 mi SE 20.7 mph 26.5 mph N/A   Mostly Cloudy
4:31 PM 35.6 °F 26.2 °F 24.8 °F 65% 30.01 in 10.0 mi SE 15.0 mph - N/A   Overcast
4:53 PM 35.1 °F 24.1 °F 25.0 °F 67% 30.05 in 10.0 mi SE 19.6 mph 25.3 mph N/A   Overcast
5:53 PM 34.0 °F 23.8 °F 26.1 °F 73% 30.04 in 10.0 mi ESE 16.1 mph - N/A   Overcast
6:53 PM 33.1 °F 21.9 °F 25.0 °F 72% 30.04 in 10.0 mi SE 18.4 mph 27.6 mph N/A   Overcast
7:22 PM 32.0 °F 19.8 °F 26.6 °F 80% 29.97 in 1.8 mi SE 20.7 mph 29.9 mph 0.00 in Snow Light Snow
7:43 PM 30.2 °F 19.8 °F 26.6 °F 86% 29.95 in 2.0 mi ESE 13.8 mph - 0.00 in Snow Light Snow
7:53 PM 30.9 °F 19.8 °F 27.0 °F 85% 30.00 in 3.0 mi ESE 16.1 mph - 0.00 in Snow Light Snow
8:01 PM 30.2 °F 19.8 °F 26.6 °F 86% 29.94 in 2.0 mi ESE 13.8 mph - 0.01 in Snow Light Snow
8:17 PM 30.2 °F 19.3 °F 26.6 °F 86% 29.92 in 6.0 mi East 15.0 mph - 0.02 in Snow Light Snow
8:27 PM 30.2 °F 18.5 °F 26.6 °F 86% 29.91 in 3.0 mi ESE 17.3 mph - 0.02 in Snow Light Snow
8:53 PM 30.9 °F 19.1 °F 27.0 °F 85% 29.94 in 7.0 mi East 18.4 mph - 0.03 in Snow Light Snow
9:40 PM 30.2 °F 19.3 °F 26.6 °F 86% 29.86 in 10.0 mi ESE 15.0 mph - 0.03 in   Overcast
9:48 PM 30.2 °F 18.9 °F 26.6 °F 86% 29.85 in 9.0 mi ESE 16.1 mph - 0.04 in   Overcast
9:53 PM 30.9 °F 19.4 °F 27.0 °F 85% 29.90 in 9.0 mi ESE 17.3 mph 25.3 mph 0.04 in Snow Light Snow
10:53 PM 30.9 °F 19.8 °F 28.0 °F 89% 29.85 in 3.0 mi East 16.1 mph - 0.10 in Snow Snow
11:10 PM 30.2 °F 21.3 °F 28.4 °F 93% 29.81 in 7.0 mi East 10.4 mph - 0.04 in Snow Snow
11:42 PM 30.2 °F 19.3 °F 28.4 °F 93% 29.81 in 2.5 mi East 15.0 mph 21.9 mph 0.08 in Snow Snow
11:51 PM 30.2 °F 19.3 °F 28.4 °F 93% 29.82 in 5.0 mi East 15.0 mph - 0.09 in Snow Snow
11:53 PM 30.9 °F 19.8 °F 28.0 °F 89% 29.86 in 5.0 mi East 16.1 mph - 0.10 in Snow Snow